Location: Edisto_Beach
(32.4790°N, 80.3350°W)
Time: 17:16:30
(UTC-05:00)

Amateur Radio Satellites - All Passes

Search period start: 02 December 2016 16:46
Search period end: 03 December 2016 16:46
Location: Edisto_Beach, 32.4790°N, 80.3350°W

Satellite Date Start Highest point End Downlink Frequencies (MHz)
Time Altitude Azimuth
CUTE-I 02 Dec 16:50:43 16:54:16 18° 66° (ENE) 16:57:51 437.470
AO-7 02 Dec 16:51:35 16:57:14 20° 265° (W) 17:02:56 29.400- 29.500
ISS 02 Dec 16:57:17 17:00:27 50° 133° (SE) 17:03:40 145.825
JUGNU 02 Dec 16:57:40 17:01:30 18° 192° (SSW) 17:05:20 437.505
GOMX 1 02 Dec 17:00:06 17:04:01 33° 72° (ENE) 17:08:12 467.674
BEESAT 2 02 Dec 17:02:23 17:05:24 21° 250° (WSW) 17:08:25 435.950
BRITE-PL 02 Dec 17:03:18 17:07:27 78° 260° (W) 17:11:49 437.365/2234.400
Cubesat XI-IV 02 Dec 17:14:02 17:18:41 31° 70° (ENE) 17:23:21 437.490
RS-15 02 Dec 17:16:08 17:28:24 62° 57° (ENE) 17:40:08 29.354- 29.394
AIST 2 02 Dec 17:17:27 17:18:37 11° 49° (NE) 17:19:47 435.215
LilacSat-2 02 Dec 17:22:33 17:25:59 31° 74° (ENE) 17:29:26 437.200
NOAA 15 02 Dec 17:25:16 17:30:13 45° 72° (ENE) 17:35:11 137.62
KKS-1 02 Dec 17:27:38 17:31:10 23° 290° (WNW) 17:34:42 437.445
DOVE 4 02 Dec 17:31:02 17:35:03 30° 71° (ENE) 17:39:17 437.250
HORYU 2 02 Dec 17:35:07 17:39:16 37° 261° (W) 17:43:25 437.375
STARS 02 Dec 17:44:33 17:48:30 32° 288° (WNW) 17:52:25 437.465
CINEMA 3 02 Dec 17:45:46 17:46:09 10° 64° (ENE) 17:46:32 145.822/145.860
HO-68 02 Dec 17:46:02 17:49:43 15° 59° (ENE) 17:53:23 435.675
CUBESAT XI-V 02 Dec 17:55:54 18:00:10 37° 287° (WNW) 18:04:27 437.345
NOAA 18 02 Dec 18:03:34 18:09:00 62° 73° (ENE) 18:14:28 137.9125
O/OREOS (USA 219) 02 Dec 18:05:42 18:08:06 14° 300° (WNW) 18:10:30 437.305
Cosmos 2491 02 Dec 18:11:26 18:19:35 42° 78° (ENE) 18:27:40 435.465 / 435.565
STRAND 1 02 Dec 18:22:18 18:22:24 10° 92° (E) 18:22:30 437.568
SRMSAT 02 Dec 18:28:04 18:32:29 22° 186° (S) 18:36:54 437.500
CUTE-I 02 Dec 18:28:45 18:33:53 47° 260° (W) 18:39:04 437.470
ISS 02 Dec 18:35:14 18:37:10 15° 327° (NNW) 18:39:07 145.825
YUBILEINY 02 Dec 18:35:36 18:42:39 29° 85° (E) 18:49:43 435.215
GOMX 1 02 Dec 18:39:27 18:42:14 16° 267° (W) 18:45:08 467.674
AIST 2 02 Dec 18:53:18 18:57:29 64° 244° (WSW) 19:01:38 435.215
Cubesat XI-IV 02 Dec 18:54:10 18:58:40 27° 263° (W) 19:03:10 437.490
CUTE 1.7 + AOD 2 02 Dec 18:58:16 19:02:07 36° 74° (ENE) 19:05:59 437.475
LilacSat-2 02 Dec 18:58:28 19:00:18 13° 266° (W) 19:02:09 437.200
NOAA 15 02 Dec 19:06:46 19:10:08 17° 265° (W) 19:13:30 137.62
DOVE 4 02 Dec 19:09:17 19:12:44 21° 267° (W) 19:16:21 437.250
CANX-2 02 Dec 19:15:01 19:19:14 71° 77° (ENE) 19:23:26 2200.000
CINEMA 3 02 Dec 19:17:45 19:22:31 74° 259° (WSW) 19:27:30 145.822/145.860
UWE-3 02 Dec 19:19:00 19:21:58 17° 69° (ENE) 19:24:54 435.000/436.395/437.385
HO-68 02 Dec 19:29:18 19:36:27 87° 255° (WSW) 19:43:40 435.675
RS-15 02 Dec 19:29:45 19:40:03 34° 256° (WSW) 19:50:04 29.354- 29.394
AAUSAT CUBESAT 2 02 Dec 19:41:06 19:44:54 37° 74° (ENE) 19:48:41 437.432
NOAA 18 02 Dec 19:47:24 19:49:59 13° 267° (W) 19:52:35 137.9125
SEEDS 02 Dec 19:48:50 19:53:00 78° 259° (W) 19:57:11 437.485
SO-50 02 Dec 19:50:57 19:54:06 18° 109° (ESE) 19:57:14 436.795
STRAND 1 02 Dec 19:56:53 20:01:58 69° 285° (WNW) 20:07:00 437.568
AIST 1 02 Dec 20:01:09 20:05:10 41° 92° (E) 20:09:14
CUBEBUG 2 02 Dec 20:02:23 20:07:07 85° 77° (ENE) 20:11:55 437.445
COMPASS 1 02 Dec 20:06:54 20:11:01 72° 258° (WSW) 20:15:09 437.405
ZACube-1 02 Dec 20:07:46 20:11:55 35° 73° (ENE) 20:16:03 437.345
Cosmos 2491 02 Dec 20:08:34 20:16:07 35° 274° (W) 20:23:41 435.465 / 435.565
CUSAT 1 02 Dec 20:14:11 20:16:08 13° 80° (E) 20:18:19 437.405
Cosmos 2504 02 Dec 20:14:31 20:22:27 64° 92° (E) 20:30:58 435.465 / 435.565
FUNcube-1 02 Dec 20:17:38 20:21:56 42° 74° (ENE) 20:26:12 145.935
SRMSAT 02 Dec 20:18:13 20:21:00 14° 196° (SSW) 20:23:48 437.500
YUBILEINY 02 Dec 20:30:35 20:38:54 50° 281° (W) 20:47:21 435.215
CUTE 1.7 + AOD 2 02 Dec 20:35:49 20:38:02 14° 266° (W) 20:40:14 437.475
HUMSAT D 02 Dec 20:38:05 20:38:55 10° 67° (ENE) 20:39:45 437.325/437.525
Oscar 11 02 Dec 20:53:25 20:57:44 75° 259° (WSW) 21:02:03 145.826/435.025
PCSat 02 Dec 20:53:41 20:57:20 18° 53° (NE) 21:00:58 145.827
UWE-3 02 Dec 20:53:41 20:58:02 39° 262° (W) 21:02:25 435.000/436.395/437.385
PRISM 02 Dec 20:56:48 21:00:29 30° 98° (E) 21:04:09 437.425
DELFI C3 02 Dec 21:13:42 21:17:34 61° 76° (ENE) 21:21:26 145.870
AAUSAT CUBESAT 2 02 Dec 21:18:42 21:20:27 12° 267° (W) 21:22:14 437.432
HO-68 02 Dec 21:23:09 21:24:54 11° 269° (W) 21:26:40 435.675
SO-50 02 Dec 21:29:42 21:34:14 41° 302° (WNW) 21:38:43 436.795
AIST 1 02 Dec 21:41:23 21:42:57 12° 286° (WNW) 21:44:32
ZACube-1 02 Dec 21:45:12 21:48:13 17° 266° (W) 21:51:14 437.345
UNISAT 6 02 Dec 21:54:28 21:58:16 28° 97° (E) 22:01:59 437.425
CUSAT 1 02 Dec 21:54:33 21:57:48 28° 263° (W) 22:01:51 437.405
FUNcube-1 02 Dec 21:55:48 21:58:16 14° 267° (W) 22:00:42 145.935
DANDE 02 Dec 22:02:45 22:05:32 64° 82° (E) 22:08:54 436.750
HUMSAT D 02 Dec 22:09:53 22:14:02 51° 260° (W) 22:18:09 437.325/437.525
Cosmos 2504 02 Dec 22:10:22 22:16:26 22° 290° (WNW) 22:22:50 435.465 / 435.565
ESTCUBE 1 02 Dec 22:22:05 22:25:41 24° 71° (ENE) 22:29:18 437.505/2401.250
TIGRISAT 02 Dec 22:25:15 22:29:38 64° 101° (ESE) 22:33:53 435.000
ANTELSAT 02 Dec 22:25:40 22:30:04 69° 102° (ESE) 22:34:20 437.575/2403.000
PRISM 02 Dec 22:32:50 22:35:30 17° 291° (WNW) 22:38:10 437.425
PCSat 02 Dec 22:35:46 22:41:02 54° 249° (WSW) 22:46:17 145.827
AISAT 02 Dec 22:45:23 22:48:27 19° 69° (ENE) 22:51:32 437.250
SPROUT 02 Dec 22:49:40 22:51:06 11° 67° (ENE) 22:52:31 437.525
JAS-2 02 Dec 22:55:08 22:59:13 23° 97° (E) 23:03:25 435.910
CUBEBUG 1 02 Dec 23:20:10 23:24:28 70° 76° (ENE) 23:28:49 437.445
VELOX 1 02 Dec 23:21:16 23:25:27 46° 74° (ENE) 23:29:41 145.980
NANOSAT C BR1 02 Dec 23:21:21 23:24:51 25° 96° (E) 23:28:18 145.865
QB50P2 02 Dec 23:23:13 23:27:00 31° 98° (E) 23:30:44 145.880/145.840
POLYITAN 1 02 Dec 23:23:55 23:27:38 29° 98° (E) 23:31:18 437.675
Cosmos 2499 02 Dec 23:30:45 23:34:21 13° 78° (ENE) 23:38:01 435.465 / 435.565
ISS 02 Dec 23:31:04 23:31:23 10° 29° (NNE) 23:31:42 145.825
UNISAT 6 02 Dec 23:31:36 23:34:45 19° 291° (WNW) 23:37:50 437.425
QB50P1 02 Dec 23:37:56 23:42:00 44° 99° (E) 23:46:01 145.935-145.965
DUCHIFAT 1 02 Dec 23:45:06 23:49:09 45° 99° (E) 23:53:09 145.980
DX 1 02 Dec 23:47:11 23:51:21 48° 74° (ENE) 23:55:33 434.975-435.025
50 SAT 02 Dec 23:47:53 23:51:23 88° 74° (ENE) 23:54:54 437.505
ESTCUBE 1 02 Dec 23:58:47 00:02:21 23° 264° (W) 00:05:56 437.505/2401.250
POPSAT HIP 1 02 Dec 23:58:56 00:03:12 82° 103° (ESE) 00:07:24 437.405
UKube-1 03 Dec 00:01:45 00:05:55 52° 75° (ENE) 00:10:08 .
AISAT 03 Dec 00:20:45 00:24:39 30° 262° (W) 00:28:33 437.250
SPROUT 03 Dec 00:22:23 00:26:31 49° 260° (W) 00:30:43 437.525
TISAT 1 03 Dec 00:22:55 00:26:09 22° 70° (ENE) 00:29:25 437.305
Oscar 19 03 Dec 00:27:18 00:27:46 10° 92° (E) 00:28:14 437.125/150
JAS-2 03 Dec 00:39:46 00:44:19 32° 289° (WNW) 00:49:00 435.910
M-CUBED/EXP-1 PRIME 03 Dec 00:43:05 00:44:25 11° 60° (ENE) 00:45:46 437.505
NANOSAT C BR1 03 Dec 00:57:14 01:00:22 21° 290° (WNW) 01:03:30 145.865
BUGSAT 1 03 Dec 00:57:19 01:01:28 62° 285° (WNW) 01:05:33 437.445
QB50P2 03 Dec 00:59:46 01:02:30 17° 291° (WNW) 01:05:13 145.880/145.840
POLYITAN 1 03 Dec 01:00:19 01:03:09 18° 291° (WNW) 01:05:59 437.675
VELOX 1 03 Dec 01:00:31 01:02:06 12° 267° (W) 01:03:41 145.980
ISS 03 Dec 01:05:01 01:08:20 84° 44° (NE) 01:11:37 145.825
GONETS M04 03 Dec 01:06:43 01:15:21 68° 92° (E) 01:23:58
QB50P1 03 Dec 01:15:37 01:17:19 12° 293° (WNW) 01:19:01 145.935-145.965
Cosmos 2499 03 Dec 01:17:42 01:26:01 87° 92° (E) 01:34:52 435.465 / 435.565
DUCHIFAT 1 03 Dec 01:22:52 01:24:22 12° 293° (WNW) 01:25:52 145.980
DX 1 03 Dec 01:26:38 01:27:45 11° 267° (W) 01:28:51 434.975-435.025
Gurwin Techsat 1B 03 Dec 01:29:41 01:34:01 25° 96° (E) 01:38:19 435.225
AO-85 03 Dec 01:34:28 01:37:23 15° 109° (ESE) 01:40:12 145.980
PHONESAT 2.4 03 Dec 01:37:55 01:40:35 86° 153° (SSE) 01:43:15 2401.200-2431.200
SWISSCUBE 03 Dec 01:41:39 01:46:03 37° 72° (ENE) 01:50:26 437.505
BEESAT 03 Dec 01:46:07 01:50:29 37° 72° (ENE) 01:54:52 436.000
TISAT 1 03 Dec 01:58:12 02:01:37 24° 263° (W) 02:05:04 437.305
Oscar 19 03 Dec 02:02:18 02:07:28 71° 285° (WNW) 02:12:38 437.125/150
AUBIESAT-1 03 Dec 02:05:17 02:09:10 83° 255° (WSW) 02:13:25 437.475
ITUPSAT 1 03 Dec 02:10:51 02:15:37 70° 75° (ENE) 02:20:23 437.325
M-CUBED/EXP-1 PRIME 03 Dec 02:14:36 02:18:19 47° 257° (WSW) 02:22:21 437.505
ITAMSAT 1 03 Dec 02:24:10 02:27:29 17° 95° (E) 02:30:48 435.822/435.867
O/OREOS (USA 219) 03 Dec 02:38:44 02:42:58 40° 67° (ENE) 02:47:09 437.305
KKS-1 03 Dec 02:45:59 02:48:15 14° 67° (ENE) 02:50:31 437.445
AO-7 03 Dec 03:03:17 03:10:28 31° 98° (E) 03:17:35 29.400- 29.500
GONETS M04 03 Dec 03:06:36 03:12:46 21° 289° (WNW) 03:18:59
Gurwin Techsat 1B 03 Dec 03:09:14 03:13:54 32° 290° (WNW) 03:18:34 435.225
AO-85 03 Dec 03:12:37 03:17:30 50° 301° (WNW) 03:22:04 145.980
PHONESAT 2.4 03 Dec 03:14:03 03:16:05 19° 348° (NNW) 03:18:07 2401.200-2431.200
Cosmos 2499 03 Dec 03:15:25 03:20:14 16° 293° (WNW) 03:25:12 435.465 / 435.565
SWISSCUBE 03 Dec 03:20:43 03:23:53 17° 265° (W) 03:27:03 437.505
MOZHAYETS 4 03 Dec 03:23:47 03:28:23 84° 259° (W) 03:33:00
BEESAT 03 Dec 03:25:08 03:28:19 18° 265° (W) 03:31:30 436.000
ITAMSAT 1 03 Dec 04:02:12 04:07:05 44° 288° (WNW) 04:11:58 435.822/435.867
O/OREOS (USA 219) 03 Dec 04:19:43 04:21:56 14° 261° (W) 04:24:07 437.305
KKS-1 03 Dec 04:20:08 04:24:23 43° 261° (W) 04:28:39 437.445
STARS 03 Dec 04:35:45 04:40:08 67° 258° (WSW) 04:44:33 437.465
PHONESAT 2.4 03 Dec 04:50:19 04:51:57 15° 4° (N) 04:53:37 2401.200-2431.200
BEESAT 3 03 Dec 04:50:56 04:53:26 17° 109° (ESE) 04:55:57 437.485
CUBESAT XI-V 03 Dec 04:54:00 04:58:32 65° 259° (WSW) 05:03:07 437.345
AO-7 03 Dec 04:55:21 05:03:19 50° 293° (WNW) 05:11:15 29.400- 29.500
GOMX 1 03 Dec 05:06:30 05:10:17 19° 93° (E) 05:14:04 467.674
BRITE-PL 03 Dec 05:11:15 05:16:33 52° 100° (E) 05:22:02 437.365/2234.400
BEESAT 2 03 Dec 05:13:21 05:15:04 13° 108° (ESE) 05:16:48 435.950
HORYU 2 03 Dec 05:30:10 05:34:33 58° 101° (E) 05:38:52 437.375
STRAND 1 03 Dec 05:34:05 05:34:35 10° 63° (ENE) 05:35:06 437.568
DOVE 4 03 Dec 05:35:41 05:38:25 14° 91° (E) 05:41:05 437.250
Cubesat XI-IV 03 Dec 05:36:41 05:40:10 17° 94° (E) 05:43:38 437.490
NOAA 15 03 Dec 05:45:27 05:49:44 25° 97° (E) 05:54:00 137.62
SO-50 03 Dec 06:05:20 06:09:42 47° 59° (ENE) 06:13:58 436.795
Cosmos 2504 03 Dec 06:14:50 06:20:28 18° 68° (ENE) 06:25:53 435.465 / 435.565
PHONESAT 2.4 03 Dec 06:25:13 06:27:42 34° 20° (NNE) 06:30:10 2401.200-2431.200
BEESAT 3 03 Dec 06:27:24 06:30:47 29° 303° (WNW) 06:34:14 437.485
NOAA 18 03 Dec 06:30:35 06:35:43 39° 99° (E) 06:40:50 137.9125
LilacSat-2 03 Dec 06:33:58 06:37:46 86° 283° (WNW) 06:41:30 437.200
GOMX 1 03 Dec 06:43:15 06:48:27 46° 286° (WNW) 06:53:40 467.674
YUBILEINY 03 Dec 06:45:56 06:54:43 67° 82° (E) 07:03:29 435.215
BEESAT 2 03 Dec 06:48:47 06:52:27 38° 302° (WNW) 06:56:10 435.950
CUTE-I 03 Dec 06:50:16 06:55:36 80° 284° (WNW) 07:00:54 437.470
BRITE-PL 03 Dec 06:51:02 06:54:35 18° 292° (WNW) 06:58:14 437.365/2234.400
HO-68 03 Dec 07:03:16 07:08:47 23° 96° (E) 07:14:16 435.675
CANX-2 03 Dec 07:05:39 07:08:25 17° 95° (E) 07:11:12 2200.000
Cosmos 2491 03 Dec 07:06:15 07:14:46 57° 91° (E) 07:23:16 435.465 / 435.565
STRAND 1 03 Dec 07:07:54 07:13:02 78° 257° (WSW) 07:18:12 437.568
HORYU 2 03 Dec 07:09:46 07:10:31 10° 295° (WNW) 07:11:17 437.375
DOVE 4 03 Dec 07:11:11 07:16:22 56° 285° (WNW) 07:21:24 437.250
Cubesat XI-IV 03 Dec 07:15:19 07:20:23 45° 288° (WNW) 07:25:25 437.490
CINEMA 3 03 Dec 07:17:37 07:22:07 39° 98° (E) 07:26:24 145.822/145.860
NOAA 15 03 Dec 07:24:49 07:29:27 32° 290° (WNW) 07:34:05 137.62
RS-15 03 Dec 07:32:20 07:43:38 62° 111° (ESE) 07:55:30 29.354- 29.394
SEEDS 03 Dec 07:37:43 07:41:05 23° 96° (E) 07:44:27 437.485
PRISM 03 Dec 07:43:41 07:45:13 12° 67° (ENE) 07:46:47 437.425
SO-50 03 Dec 07:47:41 07:49:40 13° 252° (WSW) 07:51:38 436.795
AIST 1 03 Dec 07:49:50 07:54:14 76° 265° (W) 07:58:37
COMPASS 1 03 Dec 07:54:38 07:58:02 24° 96° (E) 08:01:24 437.405
CUBEBUG 2 03 Dec 07:58:53 08:02:27 24° 95° (E) 08:05:55 437.445
PHONESAT 2.4 03 Dec 08:00:38 08:02:54 25° 214° (SW) 08:05:10 2401.200-2431.200
Cosmos 2504 03 Dec 08:05:58 08:14:46 78° 267° (W) 08:23:01 435.465 / 435.565
NOAA 18 03 Dec 08:11:51 08:16:05 23° 293° (WNW) 08:20:17 137.9125
CUTE 1.7 + AOD 2 03 Dec 08:22:54 08:27:02 57° 284° (WNW) 08:31:10 437.475
CANX-2 03 Dec 08:40:37 08:44:15 29° 288° (WNW) 08:47:53 2200.000
YUBILEINY 03 Dec 08:44:33 08:50:38 21° 278° (W) 08:56:42 435.215
Oscar 11 03 Dec 08:45:36 08:49:16 27° 97° (E) 08:52:55 145.826/435.025
AIST 2 03 Dec 08:46:03 08:50:07 82° 116° (ESE) 08:54:16 435.215
UWE-3 03 Dec 08:47:54 08:52:09 59° 100° (E) 08:56:18 435.000/436.395/437.385
UNISAT 6 03 Dec 08:49:23 08:52:19 17° 68° (ENE) 08:55:15 437.425
HO-68 03 Dec 08:49:45 08:56:43 54° 290° (WNW) 09:03:39 435.675
CINEMA 3 03 Dec 08:55:45 08:58:50 17° 293° (WNW) 09:01:50 145.822/145.860
DELFI C3 03 Dec 08:57:53 08:58:55 11° 93° (E) 08:59:57 145.870
AAUSAT CUBESAT 2 03 Dec 09:02:39 09:06:43 58° 284° (WNW) 09:10:47 437.432
Cosmos 2491 03 Dec 09:04:58 09:11:57 26° 287° (WNW) 09:18:58 435.465 / 435.565
CUSAT 1 03 Dec 09:12:39 09:15:16 18° 97° (E) 09:17:32 437.405
SEEDS 03 Dec 09:13:26 09:16:37 21° 289° (WNW) 09:19:47 437.485
PRISM 03 Dec 09:16:17 09:20:06 41° 261° (W) 09:23:57 437.425
TIGRISAT 03 Dec 09:19:00 09:23:12 33° 72° (ENE) 09:27:22 435.000
ANTELSAT 03 Dec 09:19:30 09:23:46 35° 73° (ENE) 09:28:01 437.575/2403.000
COMPASS 1 03 Dec 09:30:19 09:33:24 20° 289° (WNW) 09:36:28 437.405
CUBEBUG 2 03 Dec 09:35:30 09:38:54 22° 290° (WNW) 09:42:13 437.445
ZACube-1 03 Dec 09:36:37 09:40:47 57° 284° (WNW) 09:44:51 437.345
RS-15 03 Dec 09:46:06 09:56:41 37° 312° (NW) 10:07:47 29.354- 29.394
FUNcube-1 03 Dec 09:46:21 09:50:24 47° 286° (WNW) 09:54:23 145.935
HUMSAT D 03 Dec 09:57:56 10:01:36 32° 98° (E) 10:05:16 437.325/437.525
Cosmos 2504 03 Dec 10:04:25 10:06:30 11° 284° (WNW) 10:08:34 435.465 / 435.565
NANOSAT C BR1 03 Dec 10:11:13 10:12:21 11° 67° (ENE) 10:13:30 145.865
QB50P2 03 Dec 10:12:43 10:14:54 14° 68° (ENE) 10:17:05 145.880/145.840
POLYITAN 1 03 Dec 10:13:30 10:15:33 13° 67° (ENE) 10:17:35 437.675
Oscar 11 03 Dec 10:22:05 10:25:11 20° 290° (WNW) 10:28:16 145.826/435.025
UNISAT 6 03 Dec 10:24:15 10:28:39 40° 261° (W) 10:33:04 437.425
QB50P1 03 Dec 10:26:33 10:29:33 19° 70° (ENE) 10:32:34 145.935-145.965
DELFI C3 03 Dec 10:30:08 10:33:51 40° 286° (WNW) 10:37:34 145.870
DUCHIFAT 1 03 Dec 10:33:07 10:36:06 19° 70° (ENE) 10:39:06 145.980
JAS-2 03 Dec 10:45:20 10:52:05 60° 74° (ENE) 10:58:04 435.910
POPSAT HIP 1 03 Dec 10:46:50 10:50:37 32° 73° (ENE) 10:54:27 437.405
CUSAT 1 03 Dec 10:55:09 10:56:58 13° 279° (W) 10:58:39 437.405
TIGRISAT 03 Dec 10:56:30 10:59:50 19° 265° (W) 11:03:14 435.000
ANTELSAT 03 Dec 10:57:18 11:00:28 18° 265° (W) 11:03:41 437.575/2403.000
DANDE 03 Dec 11:05:25 11:11:00 60° 277° (W) 11:15:10 436.750
CUBEBUG 1 03 Dec 11:14:11 11:17:20 19° 95° (E) 11:20:27 437.445
Cosmos 2499 03 Dec 11:16:23 11:23:05 25° 71° (ENE) 11:29:24 435.465 / 435.565
VELOX 1 03 Dec 11:17:37 11:19:38 13° 94° (E) 11:21:40 145.980
JUGNU 03 Dec 11:18:43 11:21:11 13° 163° (SSE) 11:23:39 437.505
GONETS M04 03 Dec 11:23:40 11:30:40 26° 73° (ENE) 11:37:37
PCSat 03 Dec 11:29:42 11:34:38 38° 109° (ESE) 11:39:37 145.827
HUMSAT D 03 Dec 11:34:38 11:36:54 15° 291° (WNW) 11:39:10 437.325/437.525
Oscar 19 03 Dec 11:40:44 11:40:56 10° 63° (ENE) 11:41:07 437.125/150
DX 1 03 Dec 11:41:52 11:43:38 12° 94° (E) 11:45:24 434.975-435.025
BUGSAT 1 03 Dec 11:42:00 11:46:00 45° 74° (ENE) 11:50:03 437.445
NANOSAT C BR1 03 Dec 11:43:26 11:47:34 50° 260° (W) 11:51:44 145.865
QB50P2 03 Dec 11:46:17 11:50:17 39° 261° (W) 11:54:20 145.880/145.840
POLYITAN 1 03 Dec 11:46:51 11:50:54 42° 261° (W) 11:55:00 437.675
AO-85 03 Dec 11:48:57 11:52:32 33° 57° (ENE) 11:56:03 145.980
ESTCUBE 1 03 Dec 11:54:37 11:59:08 80° 283° (WNW) 12:03:38 437.505/2401.250
UKube-1 03 Dec 11:55:12 11:57:06 13° 94° (E) 11:58:59 .
QB50P1 03 Dec 12:01:24 12:05:05 28° 263° (W) 12:08:47 145.935-145.965
DUCHIFAT 1 03 Dec 12:07:54 12:11:32 28° 263° (W) 12:15:13 145.980
RS-15 03 Dec 12:10:07 12:14:32 12° 344° (NNW) 12:18:59 29.354- 29.394
SPROUT 03 Dec 12:12:44 12:16:45 38° 99° (E) 12:20:43 437.525
AISAT 03 Dec 12:14:40 12:19:09 70° 102° (ESE) 12:23:35 437.250
POPSAT HIP 1 03 Dec 12:23:43 12:26:25 16° 265° (W) 12:29:08 437.405
JAS-2 03 Dec 12:32:48 12:37:13 18° 264° (W) 12:41:22 435.910
Gurwin Techsat 1B 03 Dec 12:46:25 12:50:45 26° 69° (ENE) 12:55:05 435.225
CUBEBUG 1 03 Dec 12:49:42 12:53:34 30° 288° (WNW) 12:57:26 437.445
50 SAT 03 Dec 12:51:42 12:55:01 38° 285° (WNW) 12:58:20 437.505
VELOX 1 03 Dec 12:52:00 12:56:15 44° 286° (WNW) 13:00:28 145.980
JUGNU 03 Dec 13:05:10 13:09:33 21° 173° (S) 13:13:56 437.505
Cosmos 2499 03 Dec 13:08:20 13:16:40 58° 270° (W) 13:24:23 435.465 / 435.565
PCSat 03 Dec 13:13:44 13:18:04 24° 304° (NW) 13:22:27 145.827
Oscar 19 03 Dec 13:14:25 13:19:31 78° 257° (WSW) 13:24:39 437.125/150
DX 1 03 Dec 13:15:48 13:19:59 44° 286° (WNW) 13:24:09 434.975-435.025
GONETS M04 03 Dec 13:19:23 13:27:48 56° 269° (W) 13:36:14
BUGSAT 1 03 Dec 13:20:26 13:21:33 11° 267° (W) 13:22:41 437.445
UKube-1 03 Dec 13:29:10 13:33:16 42° 287° (WNW) 13:37:21 .
AO-85 03 Dec 13:30:41 13:32:34 13° 251° (WSW) 13:34:26 145.980
ITAMSAT 1 03 Dec 13:37:58 13:41:22 18° 66° (ENE) 13:44:45 435.822/435.867
TISAT 1 03 Dec 13:45:34 13:49:48 73° 101° (E) 13:53:58 437.305
SWISSCUBE 03 Dec 13:47:57 13:50:17 14° 94° (E) 13:52:37 437.505
SPROUT 03 Dec 13:49:59 13:52:18 14° 292° (WNW) 13:54:36 437.525
AUBIESAT-1 03 Dec 13:50:29 13:52:02 12° 96° (E) 13:53:34 437.475
BEESAT 03 Dec 13:52:22 13:54:40 13° 94° (E) 13:56:58 436.000
AO-7 03 Dec 13:57:48 14:04:37 29° 61° (ENE) 14:11:25 29.400- 29.500
M-CUBED/EXP-1 PRIME 03 Dec 13:58:28 14:01:49 20° 99° (E) 14:05:04 437.505
ITUPSAT 1 03 Dec 14:16:31 14:20:27 25° 97° (E) 14:24:21 437.325
Gurwin Techsat 1B 03 Dec 14:25:50 14:30:30 31° 262° (W) 14:35:12 435.225
RS-15 03 Dec 14:28:59 14:35:20 15° 24° (NNE) 14:41:38 29.354- 29.394
SRMSAT 03 Dec 14:38:41 14:42:24 17° 168° (SSE) 14:46:07 437.500
BEESAT 3 03 Dec 14:48:06 14:51:45 34° 58° (ENE) 14:55:23 437.485
JUGNU 03 Dec 14:53:22 14:57:59 23° 183° (S) 15:02:34 437.505
BEESAT 2 03 Dec 15:10:49 15:14:17 27° 56° (NE) 15:17:43 435.950
ITAMSAT 1 03 Dec 15:15:25 15:20:24 46° 260° (W) 15:25:25 435.822/435.867
AUBIESAT-1 03 Dec 15:22:13 15:26:42 54° 290° (WNW) 15:30:59 437.475
MOZHAYETS 4 03 Dec 15:23:42 15:27:45 31° 97° (E) 15:31:47
SWISSCUBE 03 Dec 15:23:42 15:28:15 47° 287° (WNW) 15:32:47 437.505
BEESAT 03 Dec 15:28:05 15:32:38 47° 287° (WNW) 15:37:11 436.000
M-CUBED/EXP-1 PRIME 03 Dec 15:32:04 15:36:17 34° 293° (WNW) 15:40:22 437.505
AO-7 03 Dec 15:48:51 15:56:53 54° 257° (WSW) 16:04:59 29.400- 29.500
ITUPSAT 1 03 Dec 15:54:14 15:58:09 26° 290° (WNW) 16:02:02 437.325
ISS 03 Dec 16:06:04 16:08:42 22° 128° (SE) 16:11:20 145.825
KKS-1 03 Dec 16:15:24 16:19:45 49° 100° (E) 16:24:03 437.445
BRITE-PL 03 Dec 16:18:45 16:22:22 29° 71° (ENE) 16:26:08 437.365/2234.400
HORYU 2 03 Dec 16:23:45 16:27:39 30° 72° (ENE) 16:31:34 437.375
SRMSAT 03 Dec 16:26:22 16:30:58 23° 177° (S) 16:35:32 437.500
BEESAT 3 03 Dec 16:26:50 16:29:03 15° 251° (WSW) 16:31:15 437.485
STARS 03 Dec 16:29:59 16:33:54 30° 98° (E) 16:37:46 437.465
CUTE-I 03 Dec 16:31:51 16:33:21 11° 63° (ENE) 16:34:52 437.470
